Location: Poughquag
(41.6090°N, 73.6820°W)
Time: 12:57:09
(UTC-04:00)

CUBEBUG 2 - Pass Details

Date: 02 June 2024
Orbit: 571 x 666 km, 97.8° (Epoch: 14 June)

Event Time Altitude Azimuth Distance (km) Brightness Sun altitude
Rises 02:58:08 0° 13° (NNE) 3,002 ? -19.8°
Reaches altitude 10° 03:00:22 10° 15° (NNE) 2,092 ? -19.6°
Maximum altitude 03:04:57 79° 102° (ESE) 684 ? -19.2°
Enters shadow 03:06:47 36° 184° (S) 1,044 ? -19.0°
